BEIDOU-2 G3

Last updated on Mon Jun 22 2026 00:03:04 GMT+0000 (Coordinated Universal Time)

1 36590U 10024A 26172.17753142 -.00000140 00000+0 00000+0 0 9992 2 36590 4.5263 61.5087 0007877 352.2650 359.2042 1.00270872 58807
UTC large
Height (km)
Speed (km/s)
/
Latitude / Longitude
Inclination (degrees)
Orbital Period (minutes)
Azimuth
Elevation
Range (km)
Doppler Factor

Next 0 passes for location: London (51.5072 / 0.1276)

No passes found over London.
BEIDOU-2 G3